sat.trackr.live / text

‹ back to catalog

STARLINK-6065

NORAD 56812 · 2023-078AX

PAYLOAD ACTIVE UNKNOWN

§ Identity

Operator
Country
US
Launch date
2023-05-31
Launch site
AFWTR
Launch vehicle
Mass (kg)
RCS (m²)

Purposes: comms

External: N2YO · Heavens-Above · Gunter

§ Orbital elements

Epoch: 2026-05-25T02:39:34.631136Z

Period
96.11 min
Inclination
69.9989°
Eccentricity
0.0003402
Mean motion
14.98340104 rev/d
Perigee alt
569.7 km
Apogee alt
574.4 km
Semi-major
6,950.2 km
B*
-1.3908e-4
RAAN
131.6578°
Arg perigee
270.4567°
Mean anomaly
89.6202°
Rev number
16,462

§ Raw data

STARLINK-60651 56812U 23078AX  26145.11081749 -.00001753  00000+0 -13908-3 0  99922 56812  69.9989 131.6578 0003402 270.4567  89.6202 14.98340104164625

JSON: /api/v1/satellites/56812 · /tle

For live sub-satellite position, see the globe view (requires WebGL).

§ Visibility from observer

Set your observer location to see the next 7 days of passes ≥ 10°. The values pass through the URL so the page stays shareable.

No JS? Fill the form by hand. The geolocation button needs JavaScript.